Starlink 11522

operational
NORAD ID: 63141 Int'l Des: 2025-043 Owner: SPXS Country: US Constellation: starlink
LEOCIRCULAR

Über Starlink 11522

Beschreibung wird geladen...

Live-Position

3D-Globus wird geladen...

Nächste Überflüge

Höhenverlauf

Altitude vs Time

uPlot chart will show altitude changes over time

Zweizeiliger Elementsatz

1 63141U 25043K 25353.06237376 .00181049 00000-0 13779-2 0 9993
2 63141 42.9986 16.5204 0001668 157.3111 202.7831 15.70943673 46618
Epoch: 19. Dez. 2025 • Age: 16 hours

Aktueller Status

Höhe 357.7 km
Geschwindigkeit 7.70 km/s
Subsatellitenpunkt 41.46°N, 135.65°E
Startdatum 3. März 2025
Alter 0.7 years
Typ internet

Technische Details

Klassifizierung Payload
Masse 960.00 kg
Trockenmasse 910.00 kg
Gesamtmasse 960.00 kg
Länge 0.30 m
Durchmesser 4.10 m
Spannweite 29.00 m
Form Box + pan
Hersteller SPXS
Bus-Typ Starlink V2MD
Phasenstatus In Orbit
Besitzer/Staat SPXS/US

Große Konstellationen

Loading constellations...